Portada
METAR-TAF:

METAR-TAF

Aeroports :

Iowa City Municipal Airport

Iowa City, Iowa, Estats Units d'Amèrica

latitud: 41-37-58N, longitud: 091-32-35W, altitud: 203 m

Observació

L'informe es va fer fa 54 minuts, a les 16:52 UTC
Vent 4 kt del Sud-Est
Temperatura 21°C
Humitat 53%
Pressió 1021 hPa
Visibilitat: 16.1 km
Cel clar

METAR: KIOW 231652Z AUTO 13004KT 10SM CLR 21/11 A3015 RMK AO2 SLP208 T02060111

Hora: 12:46 (17:46 UTC)


TAF: manca

Observacions i pronòstics meteorològics de més de 4000 aeroports (METAR i TAF).

Les estacions disponibles són els punts grocs i vermells al mapa.

Posi el ratolí al punt desitjat per veure el nom de l'estació.

Feu clic per veure les observacions i els pronòstics meteorològics.

Per canviar el mapa: feu clic els botons verds amb una creu de color negre per apropar; al botó verd amb un guió per allunyar la imatge; o en les fletxes verdes per a mapes adjacents.


METAR-TAF: